Wind_Speed
20 20 20 20 19 19 19 18 18 18 17 17 16 16 16 16 16 16 16 16 15 15 15 15 14 14 14 14 14 14 14 13 13 13 13 12 12 12 12 12 12 12 12
21 20 20 20 20 20 20 20 20 19 19 19 19 18 18 18 18 17 17 18 18 17 17 17 16 16 16 16 16 16 16 15 15 15 15 15 15 15 15 14 14 14 14
22 22 22 21 21 21 21 21 21 21 21 21 21 21 20 20 19 19 19 19 19 19 18 18 18 18 18 17 17 17 16 16 16 16 16 17 17 17 17 17 17 16 17
23 23 22 22 22 22 22 22 22 22 22 22 22 22 22 21 21 21 20 20 20 20 20 19 19 19 19 18 18 18 18 18 18 18 18 18 18 18 18 18 18 19 19
23 23 23 23 22 23 22 22 22 22 22 23 23 23 23 23 22 22 22 22 22 21 21 21 20 20 20 19 20 20 20 21 21 20 20 20 20 20 20 20 20 20 21
23 23 23 23 23 23 23 23 23 23 23 23 23 24 24 24 24 24 24 23 23 23 23 23 23 23 22 22 22 22 23 23 23 23 23 22 22 22 22 22 22 22 22
23 23 23 23 23 24 24 24 24 24 24 24 25 25 25 25 25 25 25 25 25 25 25 25 26 26 25 25 25 25 25 25 25 25 25 25 25 24 25 24 24 25 25
24 24 24 24 24 25 25 25 25 25 26 26 26 26 26 26 26 27 27 27 27 27 27 28 28 27 28 28 28 28 28 28 28 28 28 28 28 27 27 27 26 26 26
26 26 26 26 26 26 26 26 27 27 27 27 27 28 28 28 28 28 28 29 29 29 29 29 29 29 29 30 30 30 31 30 30 30 29 30 30 30 30 29 29 28 28
27 27 27 27 27 27 27 27 27 28 28 28 29 29 30 30 30 30 30 31 31 31 31 31 31 31 31 31 32 32 32 31 32 31 32 32 32 32 32 32 32 31 31
27 27 27 27 27 28 28 28 28 29 29 30 30 31 31 31 32 32 32 33 33 33 33 33 33 33 33 33 33 33 34 33 33 33 33 33 33 33 34 34 34 34 33
26 26 27 27 27 27 28 28 29 30 31 31 32 32 32 33 33 34 34 34 34 35 35 36 36 35 35 36 36 36 36 36 36 36 35 35 35 35 35 36 36 36 35
26 26 26 27 27 28 28 29 30 31 31 32 32 33 34 34 35 35 35 36 36 37 37 37 38 38 38 38 39 39 39 39 39 39 38 37 37 37 37 37 38 38 38
26 27 27 28 29 29 30 30 30 31 31 32 33 34 35 35 36 36 37 37 38 38 39 39 40 41 41 41 41 41 41 41 42 41 40 40 40 40 40 40 40 40 40
27 27 28 28 29 30 30 31 31 32 32 33 34 35 36 37 38 39 39 40 40 41 41 42 42 42 42 42 43 43 44 44 44 44 44 43 43 43 43 43 43 43 42
28 29 29 29 30 30 31 31 32 33 34 35 35 36 37 38 40 41 41 41 42 42 43 43 44 44 44 44 45 45 46 46 47 47 47 47 46 46 46 46 45 45 45
29 30 30 30 31 31 32 32 32 32 33 34 35 37 38 39 40 41 42 42 43 43 43 44 45 46 46 47 47 48 48 48 48 49 49 49 49 49 49 48 48 48 48
29 30 30 31 32 32 32 32 33 33 34 35 36 37 39 40 41 42 42 43 44 45 45 45 46 47 47 48 49 50 51 51 51 51 51 51 51 51 51 51 51 51 51
29 30 31 31 32 33 33 33 34 35 35 36 37 38 39 40 42 43 44 45 45 46 47 48 48 48 49 49 50 51 52 52 52 53 53 53 53 53 53 53 53 53 53
30 30 31 32 33 33 34 35 35 36 36 37 38 38 39 41 42 44 45 46 47 48 49 49 49 49 50 50 50 50 51 52 53 53 53 54 55 55 55 55 55 55 54
30 31 32 32 33 33 34 35 36 36 37 38 39 39 40 41 43 44 46 47 47 48 49 49 49 49 49 49 49 50 50 52 53 54 54 54 54 55 55 55 55 55 54
31 32 32 33 33 33 34 35 36 37 37 38 39 40 40 41 42 43 45 45 46 46 47 48 49 49 49 51 52 53 52 53 54 54 55 55 55 55 56 55 55 55 55
31 32 33 33 33 34 35 35 36 37 38 39 39 39 40 41 42 42 43 43 44 46 46 47 49 50 50 51 52 53 54 54 54 54 54 55 55 56 57 55 55 55 55
32 32 33 34 34 35 35 36 36 37 38 38 39 40 41 41 41 42 43 43 44 45 46 47 48 50 51 51 52 53 54 54 55 54 54 55 56 56 56 56 56 56 55
33 33 34 35 35 36 36 37 37 38 38 39 40 40 40 41 41 42 43 43 44 45 45 46 47 49 51 52 52 53 54 56 56 56 55 55 55 56 57 57 57 57 56
33 34 34 35 35 36 37 37 38 38 39 40 40 40 40 41 41 42 43 44 45 46 46 46 47 49 50 51 52 53 54 56 57 57 56 55 55 55 57 57 57 58 58
Wind_Direction
249 249 248 247 246 246 247 249 250 251 252 253 254 253 254 253 253 256 259 260 260 260 262 261 260 260 263 265 265 265 264 263 263 264 266 267 269 270 271 273 276 279 280
249 248 248 248 248 248 248 249 250 251 252 252 253 254 255 256 256 256 258 260 261 262 263 264 262 262 263 264 265 266 266 265 263 262 265 266 267 268 268 269 272 275 276
249 249 249 249 250 250 251 251 251 252 252 253 254 254 255 256 257 258 259 261 262 263 263 265 266 266 264 264 265 267 266 267 266 266 267 268 268 268 268 268 269 271 273
250 250 250 251 251 252 252 252 253 253 253 253 254 254 254 255 257 257 259 260 262 263 264 265 268 269 265 265 267 266 267 270 270 270 270 270 270 269 269 269 269 269 271
249 250 250 251 252 252 252 253 254 254 254 254 255 255 256 256 257 257 258 259 261 262 264 266 267 269 267 266 267 268 268 269 271 271 271 271 271 271 270 269 270 270 271
249 250 250 251 252 252 253 254 255 256 256 256 256 256 257 257 258 259 259 260 261 261 263 265 267 269 268 268 268 268 268 269 270 271 272 272 272 273 272 271 269 270 270
250 251 252 252 253 254 255 255 256 257 258 258 258 258 259 259 259 260 260 261 262 262 264 265 267 269 268 267 267 268 268 268 269 271 272 272 272 273 272 273 272 271 271
250 252 254 255 255 256 256 256 257 258 259 260 261 261 261 261 261 261 262 262 262 264 265 266 266 268 269 268 268 269 269 268 268 269 270 271 272 272 272 272 272 271 272
251 253 254 255 256 257 258 259 259 260 261 262 262 262 262 263 263 263 263 263 264 264 265 266 267 267 269 269 270 270 269 269 268 267 269 270 270 271 271 271 271 270 270
252 253 254 255 256 258 259 260 261 262 262 263 263 264 264 264 264 264 264 264 264 265 265 266 267 268 268 269 270 271 271 271 270 270 269 269 269 270 271 271 271 270 270
252 253 254 255 257 258 260 261 262 263 264 264 265 265 265 265 265 265 265 265 265 266 266 267 267 267 268 269 269 270 271 271 271 271 270 269 269 270 270 271 271 271 271
252 253 253 255 257 260 262 263 264 265 265 266 266 266 266 266 267 267 266 266 267 267 267 267 267 267 268 269 270 270 271 271 271 271 271 270 269 269 269 270 270 271 271
252 253 254 256 258 261 263 265 266 267 266 266 267 267 267 267 267 267 267 267 267 268 268 268 268 269 269 270 270 270 271 271 271 271 270 270 269 269 269 270 270 270 270
253 255 257 258 260 262 264 266 267 268 268 268 268 268 268 268 268 268 268 268 268 269 269 269 269 269 270 270 271 270 271 271 271 271 270 270 269 269 269 269 270 270 269
254 256 258 259 261 263 265 267 268 269 269 269 269 269 270 269 269 269 269 269 269 269 269 270 270 270 270 270 271 271 271 271 271 270 270 269 269 269 268 268 268 268 268
256 258 259 261 263 264 266 267 268 269 270 270 270 270 271 271 270 270 270 270 270 270 270 270 270 270 270 271 271 272 272 272 272 271 271 270 269 269 268 268 267 267 267
257 259 261 262 264 266 267 267 269 270 271 272 272 272 272 272 272 271 271 270 270 269 270 271 271 271 271 271 271 271 272 272 272 272 271 271 270 269 268 267 267 267 267
259 260 262 264 266 267 267 268 269 270 272 273 274 274 274 273 273 273 272 272 271 270 271 271 272 272 272 272 271 271 271 272 272 272 272 272 271 270 269 268 267 266 266
260 262 264 267 268 268 269 269 270 271 272 274 275 276 275 275 275 274 272 273 272 272 271 271 272 272 273 273 273 272 272 272 273 273 272 272 272 271 270 269 267 266 265
263 265 266 267 269 269 270 271 271 272 273 274 276 277 277 277 277 276 274 273 274 273 272 272 273 273 274 274 274 273 273 273 273 273 273 272 273 272 271 270 268 266 265
265 266 267 268 269 271 271 272 272 273 274 275 277 278 278 279 278 278 276 275 275 275 274 273 273 274 274 274 274 274 275 275 274 273 273 273 274 273 271 270 269 267 265
266 266 267 269 270 271 271 272 273 274 275 276 277 278 279 280 280 281 280 279 278 277 276 274 274 274 274 275 275 275 275 275 274 273 272 272 273 272 271 270 269 267 265
267 268 269 269 270 271 272 272 274 275 276 277 278 279 280 281 282 282 282 281 280 279 278 277 276 275 275 276 277 277 277 277 275 274 272 272 272 272 271 270 269 268 267
267 268 269 270 271 271 272 273 274 276 276 278 279 280 281 282 283 283 283 283 283 281 280 279 278 277 276 277 277 278 278 278 278 275 273 273 272 272 271 270 270 270 268
267 269 269 270 271 272 273 274 275 276 277 278 280 281 281 282 283 283 283 283 283 283 282 281 281 280 279 278 278 278 279 279 278 277 275 274 273 272 271 272 272 270 269
268 269 270 271 272 273 274 275 276 277 278 279 280 281 281 282 283 283 283 284 285 285 283 283 283 282 281 281 280 280 280 281 279 277 276 276 275 274 274 273 271 270 268
Height
5850 5851 5852 5853 5854 5854 5855 5856 5857 5858 5858 5859 5859 5860 5860 5860 5860 5861 5861 5861 5861 5861 5860 5860 5860 5860 5860 5859 5859 5859 5859 5859 5859 5859 5858 5858 5857 5857 5857 5857 5856 5856 5855
5846 5847 5848 5849 5850 5851 5852 5853 5854 5854 5855 5856 5856 5857 5857 5857 5857 5858 5858 5858 5858 5858 5858 5857 5857 5857 5857 5857 5856 5856 5856 5856 5856 5856 5855 5855 5855 5854 5854 5854 5853 5853 5853
5843 5844 5845 5846 5847 5847 5848 5849 5850 5851 5852 5852 5853 5853 5854 5854 5854 5854 5855 5855 5855 5855 5855 5854 5854 5854 5854 5853 5853 5853 5853 5853 5853 5853 5852 5852 5852 5851 5851 5851 5850 5850 5850
5839 5840 5841 5842 5843 5844 5845 5845 5846 5847 5848 5848 5849 5849 5850 5850 5851 5851 5851 5851 5851 5851 5851 5851 5851 5851 5850 5850 5850 5850 5849 5850 5850 5849 5849 5849 5848 5848 5847 5847 5847 5847 5846
5835 5836 5837 5838 5839 5840 5841 5841 5842 5843 5844 5844 5845 5845 5846 5846 5847 5847 5847 5847 5847 5847 5847 5847 5847 5847 5847 5847 5847 5846 5846 5846 5846 5846 5845 5845 5845 5844 5844 5843 5843 5843 5842
5831 5832 5833 5834 5835 5836 5836 5837 5838 5839 5839 5840 5841 5841 5842 5842 5842 5843 5843 5843 5843 5843 5843 5843 5843 5843 5843 5843 5843 5842 5842 5842 5841 5841 5841 5841 5841 5840 5840 5839 5839 5839 5838
5827 5827 5828 5829 5831 5831 5832 5833 5833 5834 5835 5835 5836 5836 5837 5837 5838 5838 5838 5839 5839 5839 5839 5839 5839 5838 5838 5838 5838 5838 5837 5837 5837 5837 5836 5836 5836 5836 5835 5835 5835 5834 5834
5822 5823 5824 5825 5826 5827 5827 5828 5829 5829 5830 5830 5831 5831 5832 5832 5833 5833 5833 5833 5834 5834 5834 5833 5833 5833 5833 5833 5833 5833 5832 5832 5832 5831 5831 5831 5831 5831 5830 5830 5830 5829 5829
5817 5818 5819 5820 5821 5822 5822 5823 5823 5824 5824 5825 5825 5826 5826 5827 5827 5827 5827 5828 5828 5828 5828 5828 5827 5827 5827 5827 5827 5827 5826 5826 5825 5825 5825 5825 5825 5825 5825 5824 5824 5823 5823
5812 5813 5814 5814 5815 5816 5817 5817 5818 5818 5819 5819 5819 5820 5820 5820 5821 5821 5821 5821 5821 5822 5822 5821 5821 5821 5821 5821 5821 5820 5820 5819 5819 5819 5819 5819 5819 5819 5818 5818 5818 5817 5817
5806 5807 5808 5809 5809 5810 5811 5811 5812 5812 5812 5813 5813 5813 5813 5814 5814 5814 5814 5814 5815 5815 5815 5815 5815 5815 5814 5814 5814 5814 5813 5813 5813 5812 5812 5812 5812 5812 5811 5811 5811 5810 5810
5800 5801 5802 5803 5804 5804 5805 5805 5806 5806 5806 5806 5806 5806 5807 5807 5807 5807 5807 5807 5807 5807 5807 5807 5807 5807 5807 5807 5807 5806 5806 5806 5805 5805 5805 5805 5804 5804 5804 5804 5803 5803 5803
5795 5795 5796 5797 5798 5798 5799 5799 5799 5799 5799 5799 5799 5799 5799 5799 5799 5799 5799 5799 5799 5799 5799 5799 5799 5799 5799 5799 5798 5798 5798 5797 5797 5797 5797 5797 5796 5796 5796 5796 5795 5795 5795
5789 5789 5790 5791 5791 5792 5792 5792 5792 5792 5792 5792 5792 5792 5792 5792 5791 5791 5791 5791 5791 5791 5791 5791 5790 5790 5790 5790 5789 5789 5788 5788 5788 5788 5788 5788 5788 5788 5787 5787 5787 5786 5786
5782 5783 5784 5784 5785 5785 5785 5785 5785 5785 5784 5784 5784 5784 5783 5783 5783 5783 5783 5782 5782 5782 5782 5781 5781 5781 5781 5780 5780 5779 5779 5778 5778 5778 5778 5778 5778 5778 5778 5778 5777 5777 5777
5776 5777 5777 5777 5778 5778 5778 5778 5777 5777 5777 5776 5776 5776 5775 5774 5774 5773 5773 5773 5772 5772 5772 5771 5771 5771 5770 5770 5770 5769 5768 5767 5767 5767 5766 5766 5766 5766 5767 5767 5767 5766 5766
5769 5769 5770 5770 5770 5770 5770 5770 5769 5769 5768 5768 5767 5767 5766 5765 5764 5763 5763 5762 5762 5761 5761 5760 5760 5760 5759 5759 5759 5758 5757 5756 5756 5755 5755 5754 5754 5754 5754 5754 5755 5755 5755
5762 5762 5762 5762 5762 5762 5762 5762 5762 5761 5761 5760 5759 5758 5757 5756 5755 5754 5753 5752 5751 5750 5750 5749 5749 5748 5747 5747 5747 5746 5745 5744 5743 5743 5742 5741 5741 5741 5741 5741 5742 5742 5742
5754 5754 5754 5754 5754 5754 5754 5753 5753 5753 5752 5751 5750 5749 5747 5746 5745 5743 5742 5741 5739 5738 5738 5737 5737 5736 5735 5735 5734 5733 5732 5731 5730 5730 5729 5728 5727 5727 5727 5727 5728 5728 5729
5747 5746 5746 5746 5746 5745 5745 5744 5744 5743 5743 5741 5740 5739 5738 5736 5734 5732 5730 5729 5727 5726 5725 5724 5724 5723 5723 5722 5721 5720 5719 5718 5717 5716 5715 5714 5713 5712 5712 5712 5713 5714 5714
5739 5738 5738 5737 5737 5736 5736 5735 5735 5734 5733 5732 5731 5729 5727 5725 5722 5720 5718 5716 5714 5713 5711 5711 5710 5710 5709 5708 5708 5707 5707 5705 5703 5702 5701 5699 5699 5698 5697 5697 5697 5698 5699
5730 5729 5729 5728 5728 5727 5727 5726 5725 5724 5723 5722 5720 5718 5716 5713 5711 5708 5705 5703 5701 5699 5698 5698 5697 5697 5696 5695 5694 5693 5693 5693 5691 5688 5687 5686 5684 5683 5683 5682 5682 5683 5684
5721 5721 5720 5719 5719 5718 5717 5716 5715 5714 5713 5712 5710 5708 5706 5703 5700 5697 5694 5691 5689 5688 5686 5685 5684 5684 5683 5682 5679 5678 5677 5677 5677 5676 5673 5672 5670 5669 5668 5668 5668 5668 5668
5713 5712 5711 5710 5709 5708 5708 5707 5706 5705 5703 5702 5700 5698 5695 5692 5689 5686 5683 5681 5678 5676 5674 5673 5671 5670 5669 5668 5666 5664 5663 5661 5659 5660 5660 5657 5655 5654 5653 5652 5652 5652 5651
5703 5702 5701 5701 5700 5699 5698 5697 5695 5694 5693 5692 5689 5687 5684 5681 5679 5676 5673 5670 5667 5665 5663 5661 5659 5658 5656 5655 5653 5651 5649 5646 5644 5643 5644 5643 5641 5639 5637 5636 5636 5636 5636
5694 5693 5692 5691 5690 5689 5688 5686 5685 5684 5683 5681 5679 5676 5674 5671 5668 5665 5661 5658 5656 5653 5651 5649 5647 5645 5643 5641 5639 5637 5635 5632 5629 5627 5627 5627 5625 5624 5622 5620 5619 5619 5619